User: anonymous   Login
Location: Newark
(0.5333°S, 166.9167°E)
Time: 21:58:28
(UTC+00:00)
Language:

FALCONSAT 3 - Orbit

View from above orbital plane
View from above orbital plane
View from above satellite
View from above satellite

Ground track
Ground track

The orbit data is extracted from the following two-line orbital elements,

1 30776U 07006E   19325.05099187  .00002332  00000-0  64690-4 0  9994
2 30776  35.4334 178.7458 0001563  66.1623 293.9267 15.36811602704592
Epoch (UTC): 21 November 2019 01:13:25
Eccentricity: 0.0001563
inclination: 35.4334°
perigee height: 454 km
apogee height: 456 km
right ascension of ascending node: 178.7458°
argument of perigee: 66.1623°
revolutions per day: 15.36811602
mean anomaly at epoch: 293.9267°
orbit number at epoch: 70459

The dashed part of the orbit path shows where the satellite is in the earth's shadow,  

DLR